Flag for Hungary Weather past 2 weeks in Szeged, Hungary

Now
47 °F

Light rain. Overcast.


Feels Like: 43 °F
Forecast: 43 / 54 °F
Wind: 10 mph from Northwest

Location: Szeged

Current Time: Oct 22, 2014 at 11:53:14 AM

Latest Report: Oct 22, 2014 at 11:00 AM


Visibility: 6 mi

Pressure: 29.62 "Hg

Humidity: 91%

Dew point: 45 °F

Location of SzegedLocation

Historic Weather in Szeged — Graph

°F

Szeged temperature yesterday

Maximum temperature yesterday: 65 °F (at 2:00 PM)
Minimum temperature yesterday: 50 °F (at 7:00 AM)
Average temperature yesterday: 57 °F

Past Weeks' High & Low Weather Summary

 TemperatureHumidityPressure
High81 °F (Oct 14, 2:00 PM)97% (Oct 13, 4:00 AM)30.38 "Hg (Oct 13, 4:00 AM)
Low42 °F (Oct 19, 7:00 AM)40% (Oct 14, 2:00 PM)29.50 "Hg (Oct 22, 6:00 AM)
Average60 °F83%30.02 "Hg
* Reported Oct 7 10:00 AM — Oct 22 10:00 AM, Szeged, Weather by CustomWeather, © 2014

Note: Actual official high and low records may vary slightly from our data, if they occured in-between our weather recording intervals... More about our weather records

Advertising

Szeged weather history for previous 24 hours

 ConditionsComfort  
Time TempWeatherWind HumidityBarometerVisibility
10:00 AM
Oct 22
49 °FLight rain. Overcast.9 mph88%29.59 "Hg31 mi
9:00 AM49 °FLight rain. Overcast.8 mph92%29.59 "Hg16 mi
8:00 AM49 °FLight rain. Overcast.9 mph95%29.59 "Hg6 mi
7:00 AM49 °FSprinkles. Overcast.12 mph96%29.59 "Hg4 mi
6:00 AM58 °FSprinkles. Overcast.6 mph95%29.50 "Hg4 mi
5:00 AM58 °FOvercast.5 mph94%29.55 "Hg6 mi
4:00 AM58 °FOvercast.5 mph92%29.59 "Hg12 mi
3:00 AM57 °FOvercast.5 mph90%29.64 "Hg9 mi
2:00 AM57 °FOvercast.5 mph94%29.68 "Hg9 mi
1:00 AM57 °FOvercast.2 mph93%29.71 "Hg9 mi
12:00 AM58 °FOvercast.3 mph93%29.73 "Hg9 mi
11:00 PM
Oct 21
58 °FOvercast.2 mph96%29.76 "Hg7 mi
10:00 PM56 °FOvercast.2 mph96%29.80 "Hg9 mi
9:00 PM57 °FOvercast.1 mph95%29.81 "Hg9 mi
8:00 PM57 °FOvercast.2 mph95%29.82 "Hg9 mi
7:00 PM58 °FOvercast.No wind90%29.83 "Hg9 mi
6:00 PM61 °FOvercast.2 mph85%29.83 "Hg9 mi
5:00 PM64 °FOvercast.2 mph80%29.84 "Hg11 mi
4:00 PM65 °FOvercast.1 mph79%29.84 "Hg9 mi
3:00 PM64 °FLight rain. Overcast.No wind77%29.87 "Hg7 mi
2:00 PM65 °FOvercast.2 mph73%29.86 "Hg7 mi
1:00 PM64 °FOvercast.1 mph79%29.88 "Hg6 mi
12:00 PM62 °FPartly sunny.2 mph85%29.90 "Hg5 mi
11:00 AM60 °FOvercast.1 mph89%29.90 "Hg6 mi
Weather by CustomWeather, © 2014

See weather overviewHow to use our weather pages